Time,TemperatureF,DewpointF,PressureIn,WindDirection,WindDirectionDegrees,WindSpeedMPH,WindSpeedGustMPH,Humidity,HourlyPrecipIn,Conditions,Clouds,dailyrainin,SoftwareType,DateUTC
2013-12-16 00:13:00,17.3,13.0,30.11,NNW,335,0.0,0.0,83,0.00,,,0.00,weatherlink.com 1.10,2013-12-16 05:13:00,
2013-12-16 00:28:00,17.2,13.0,30.12,North,355,0.0,0.0,84,0.00,,,0.00,weatherlink.com 1.10,2013-12-16 05:28:00,
2013-12-16 00:44:00,17.0,13.0,30.12,WNW,302,0.0,0.0,84,0.00,,,0.00,weatherlink.com 1.10,2013-12-16 05:44:00,
2013-12-16 00:58:00,17.0,13.0,30.12,WNW,295,0.0,0.0,83,0.00,,,0.00,weatherlink.com 1.10,2013-12-16 05:58:00,
2013-12-16 01:13:00,16.9,13.0,30.12,NW,311,0.0,0.0,83,0.00,,,0.00,weatherlink.com 1.10,2013-12-16 06:13:00,
2013-12-16 01:28:00,16.8,13.0,30.13,NW,308,0.0,0.0,83,0.00,,,0.00,weatherlink.com 1.10,2013-12-16 06:28:00,
2013-12-16 01:43:00,16.7,13.0,30.13,NW,322,0.0,0.0,84,0.00,,,0.00,weatherlink.com 1.10,2013-12-16 06:43:00,
2013-12-16 01:58:00,16.6,13.0,30.13,West,281,0.0,0.0,85,0.00,,,0.00,weatherlink.com 1.10,2013-12-16 06:58:00,
2013-12-16 02:13:00,16.4,13.0,30.13,West,281,0.0,0.0,85,0.00,,,0.00,weatherlink.com 1.10,2013-12-16 07:13:00,
2013-12-16 02:28:00,16.3,13.0,30.14,West,281,0.0,0.0,86,0.00,,,0.00,weatherlink.com 1.10,2013-12-16 07:28:00,
2013-12-16 02:43:00,15.9,13.0,30.14,West,281,0.0,0.0,86,0.00,,,0.00,weatherlink.com 1.10,2013-12-16 07:43:00,
2013-12-16 02:59:00,15.8,13.0,30.16,WSW,243,0.0,0.0,87,0.00,,,0.00,weatherlink.com 1.10,2013-12-16 07:59:00,
2013-12-16 03:13:00,15.8,13.0,30.16,WSW,243,0.0,0.0,87,0.00,,,0.00,weatherlink.com 1.10,2013-12-16 08:13:00,
2013-12-16 03:28:00,15.5,13.0,30.16,WSW,243,0.0,0.0,88,0.00,,,0.00,weatherlink.com 1.10,2013-12-16 08:28:00,
2013-12-16 03:43:00,15.2,12.0,30.16,WSW,243,0.0,0.0,88,0.00,,,0.00,weatherlink.com 1.10,2013-12-16 08:43:00,
2013-12-16 03:58:00,15.1,12.0,30.16,WSW,243,0.0,0.0,88,0.00,,,0.00,weatherlink.com 1.10,2013-12-16 08:58:00,
2013-12-16 04:13:00,14.8,12.0,30.16,WSW,243,0.0,0.0,89,0.00,,,0.00,weatherlink.com 1.10,2013-12-16 09:13:00,
2013-12-16 04:28:00,14.5,12.0,30.16,WSW,243,0.0,0.0,89,0.00,,,0.00,weatherlink.com 1.10,2013-12-16 09:28:00,
2013-12-16 04:43:00,14.3,12.0,30.16,WSW,243,0.0,0.0,90,0.00,,,0.00,weatherlink.com 1.10,2013-12-16 09:43:00,
2013-12-16 04:58:00,14.0,12.0,30.16,WSW,243,0.0,0.0,90,0.00,,,0.00,weatherlink.com 1.10,2013-12-16 09:58:00,
2013-12-16 05:14:00,13.5,11.0,30.16,WSW,243,0.0,0.0,90,0.00,,,0.00,weatherlink.com 1.10,2013-12-16 10:14:00,
2013-12-16 05:29:00,13.3,11.0,30.16,WSW,243,0.0,0.0,91,0.00,,,0.00,weatherlink.com 1.10,2013-12-16 10:29:00,
2013-12-16 05:44:00,12.3,10.0,30.16,WSW,243,0.0,0.0,90,0.00,,,0.00,weatherlink.com 1.10,2013-12-16 10:44:00,
2013-12-16 05:59:00,11.4,9.0,30.16,SSW,195,0.0,0.0,91,0.00,,,0.00,weatherlink.com 1.10,2013-12-16 10:59:00,
2013-12-16 06:14:00,10.7,9.0,30.17,SSW,197,0.0,0.0,91,0.00,,,0.00,weatherlink.com 1.10,2013-12-16 11:14:00,
2013-12-16 06:29:00,10.3,8.0,30.17,SSW,197,0.0,0.0,91,0.00,,,0.00,weatherlink.com 1.10,2013-12-16 11:29:00,
2013-12-16 06:44:00,9.5,7.0,30.17,SSW,197,0.0,0.0,91,0.00,,,0.00,weatherlink.com 1.10,2013-12-16 11:44:00,
2013-12-16 06:59:00,8.5,6.0,30.17,SSW,196,0.0,0.0,90,0.00,,,0.00,weatherlink.com 1.10,2013-12-16 11:59:00,
2013-12-16 07:14:00,7.7,6.0,30.18,SSW,197,0.0,0.0,91,0.00,,,0.00,weatherlink.com 1.10,2013-12-16 12:14:00,
2013-12-16 07:29:00,6.3,4.0,30.18,SSW,197,0.0,0.0,90,0.00,,,0.00,weatherlink.com 1.10,2013-12-16 12:29:00,
2013-12-16 07:44:00,5.8,4.0,30.18,SSW,197,0.0,0.0,90,0.00,,,0.00,weatherlink.com 1.10,2013-12-16 12:44:00,
2013-12-16 08:00:00,4.7,2.0,30.18,SSW,197,0.0,0.0,90,0.00,,,0.00,weatherlink.com 1.10,2013-12-16 13:00:00,
2013-12-16 08:15:00,4.1,2.0,30.18,SSW,197,0.0,0.0,90,0.00,,,0.00,weatherlink.com 1.10,2013-12-16 13:15:00,
2013-12-16 08:30:00,4.0,2.0,30.19,SSW,197,0.0,0.0,90,0.00,,,0.00,weatherlink.com 1.10,2013-12-16 13:30:00,
2013-12-16 08:45:00,3.9,2.0,30.18,SSW,197,0.0,0.0,90,0.00,,,0.00,weatherlink.com 1.10,2013-12-16 13:45:00,
2013-12-16 09:00:00,3.7,2.0,30.20,SSW,197,0.0,0.0,90,0.00,,,0.00,weatherlink.com 1.10,2013-12-16 14:00:00,
2013-12-16 09:15:00,4.8,3.0,30.20,SSW,196,0.0,0.0,91,0.00,,,0.00,weatherlink.com 1.10,2013-12-16 14:15:00,
2013-12-16 09:30:00,8.4,7.0,30.22,SSW,197,0.0,0.0,93,0.00,,,0.00,weatherlink.com 1.10,2013-12-16 14:30:00,
2013-12-16 09:45:00,13.2,11.0,30.22,SE,124,0.0,0.0,91,0.00,,,0.00,weatherlink.com 1.10,2013-12-16 14:45:00,
2013-12-16 10:00:00,15.7,12.0,30.23,SE,143,0.0,0.0,86,0.00,,,0.00,weatherlink.com 1.10,2013-12-16 15:00:00,
2013-12-16 10:15:00,18.2,13.0,30.23,SSW,210,0.0,0.0,80,0.00,,,0.00,weatherlink.com 1.10,2013-12-16 15:15:00,
2013-12-16 10:30:00,19.5,13.0,30.23,SE,134,0.0,0.0,76,0.00,,,0.00,weatherlink.com 1.10,2013-12-16 15:30:00,
2013-12-16 10:45:00,20.9,14.0,30.23,SSE,160,0.0,0.0,74,0.00,,,0.00,weatherlink.com 1.10,2013-12-16 15:45:00,
2013-12-16 11:00:00,21.5,14.0,30.23,WSW,242,0.0,0.0,72,0.00,,,0.00,weatherlink.com 1.10,2013-12-16 16:00:00,
2013-12-16 11:15:00,19.9,13.0,30.22,ESE,120,0.0,0.0,74,0.00,,,0.00,weatherlink.com 1.10,2013-12-16 16:15:00,
2013-12-16 11:30:00,19.2,13.0,30.22,South,181,0.0,0.0,75,0.00,,,0.00,weatherlink.com 1.10,2013-12-16 16:30:00,
2013-12-16 11:45:00,20.2,13.0,30.21,SW,236,0.0,0.0,74,0.00,,,0.00,weatherlink.com 1.10,2013-12-16 16:45:00,
2013-12-16 12:01:00,20.4,13.0,30.20,South,169,0.0,0.0,74,0.00,,,0.00,weatherlink.com 1.10,2013-12-16 17:01:00,
2013-12-16 12:15:00,20.3,13.0,30.20,SE,145,0.0,0.0,74,0.00,,,0.00,weatherlink.com 1.10,2013-12-16 17:15:00,
2013-12-16 12:30:00,20.6,13.0,30.19,SSE,152,0.0,0.0,73,0.00,,,0.00,weatherlink.com 1.10,2013-12-16 17:30:00,
2013-12-16 12:45:00,21.8,13.0,30.18,SE,130,0.0,0.0,70,0.00,,,0.00,weatherlink.com 1.10,2013-12-16 17:45:00,
2013-12-16 13:00:00,21.2,12.0,30.18,West,259,0.0,0.0,69,0.00,,,0.00,weatherlink.com 1.10,2013-12-16 18:00:00,
2013-12-16 13:15:00,21.0,12.0,30.18,WSW,246,0.0,0.0,69,0.00,,,0.00,weatherlink.com 1.10,2013-12-16 18:15:00,
2013-12-16 13:30:00,20.9,12.0,30.17,East,100,0.0,0.0,69,0.00,,,0.00,weatherlink.com 1.10,2013-12-16 18:30:00,
2013-12-16 13:45:00,20.9,12.0,30.16,SSE,156,0.0,0.0,68,0.00,,,0.00,weatherlink.com 1.10,2013-12-16 18:45:00,
2013-12-16 14:00:00,20.8,12.0,30.16,ESE,115,0.0,0.0,68,0.00,,,0.00,weatherlink.com 1.10,2013-12-16 19:00:00,
2013-12-16 14:15:00,21.6,12.0,30.15,South,179,0.0,0.0,67,0.00,,,0.00,weatherlink.com 1.10,2013-12-16 19:15:00,
2013-12-16 14:30:00,21.0,11.0,30.14,SE,138,0.0,0.0,66,0.00,,,0.00,weatherlink.com 1.10,2013-12-16 19:30:00,
2013-12-16 15:00:00,20.6,11.0,30.13,SE,134,0.0,0.0,67,0.00,,,0.00,weatherlink.com 1.10,2013-12-16 20:00:00,
2013-12-16 15:15:00,19.8,11.0,30.12,South,169,0.0,0.0,69,0.00,,,0.00,weatherlink.com 1.10,2013-12-16 20:15:00,
2013-12-16 15:30:00,20.0,11.0,30.11,SE,128,0.0,0.0,69,0.00,,,0.00,weatherlink.com 1.10,2013-12-16 20:30:00,
2013-12-16 15:45:00,20.0,12.0,30.12,SSW,206,0.0,0.0,70,0.00,,,0.00,weatherlink.com 1.10,2013-12-16 20:45:00,
2013-12-16 16:00:00,19.6,12.0,30.11,SSE,161,0.0,0.0,71,0.00,,,0.00,weatherlink.com 1.10,2013-12-16 21:00:00,
2013-12-16 16:15:00,19.4,11.0,30.12,WSW,240,0.0,0.0,71,0.00,,,0.00,weatherlink.com 1.10,2013-12-16 21:15:00,
2013-12-16 16:30:00,19.0,11.0,30.13,SSE,148,0.0,0.0,71,0.00,,,0.00,weatherlink.com 1.10,2013-12-16 21:30:00,
2013-12-16 16:45:00,18.6,11.0,30.13,SE,146,0.0,0.0,73,0.00,,,0.00,weatherlink.com 1.10,2013-12-16 21:45:00,
2013-12-16 17:00:00,18.3,12.0,30.13,SSE,163,0.0,0.0,75,0.00,,,0.00,weatherlink.com 1.10,2013-12-16 22:00:00,
2013-12-16 17:15:00,17.9,11.0,30.14,SE,126,0.0,0.0,75,0.00,,,0.00,weatherlink.com 1.10,2013-12-16 22:15:00,
2013-12-16 17:30:00,17.7,12.0,30.14,SE,124,0.0,0.0,78,0.00,,,0.00,weatherlink.com 1.10,2013-12-16 22:30:00,
2013-12-16 17:45:00,17.7,12.0,30.14,SE,124,0.0,0.0,78,0.00,,,0.00,weatherlink.com 1.10,2013-12-16 22:45:00,
2013-12-16 18:00:00,17.9,12.0,30.13,SE,132,0.0,0.0,78,0.00,,,0.00,weatherlink.com 1.10,2013-12-16 23:00:00,
2013-12-16 18:15:00,18.1,12.0,30.13,ENE,72,0.0,0.0,78,0.00,,,0.00,weatherlink.com 1.10,2013-12-16 23:15:00,
2013-12-16 18:29:00,18.1,13.0,30.12,South,179,0.0,0.0,80,0.00,,,0.00,weatherlink.com 1.10,2013-12-16 23:29:00,
2013-12-16 18:45:00,17.8,14.0,30.12,SW,218,0.0,0.0,83,0.00,,,0.00,weatherlink.com 1.10,2013-12-16 23:45:00,
2013-12-16 19:00:00,17.7,14.0,30.12,SE,129,0.0,0.0,84,0.00,,,0.00,weatherlink.com 1.10,2013-12-17 00:00:00,
2013-12-16 19:15:00,17.6,14.0,30.13,SE,127,0.0,0.0,85,0.00,,,0.00,weatherlink.com 1.10,2013-12-17 00:15:00,
2013-12-16 19:30:00,17.4,14.0,30.13,South,173,0.0,0.0,87,0.00,,,0.00,weatherlink.com 1.10,2013-12-17 00:30:00,
2013-12-16 19:45:00,17.3,15.0,30.12,SSE,148,0.0,0.0,89,0.00,,,0.00,weatherlink.com 1.10,2013-12-17 00:45:00,
2013-12-16 20:00:00,17.3,15.0,30.12,South,187,0.0,0.0,90,0.00,,,0.00,weatherlink.com 1.10,2013-12-17 01:00:00,
2013-12-16 20:15:00,17.3,15.0,30.12,SSW,203,0.0,0.0,90,0.00,,,0.00,weatherlink.com 1.10,2013-12-17 01:15:00,
2013-12-16 20:30:00,17.2,15.0,30.12,SE,132,0.0,0.0,90,0.00,,,0.00,weatherlink.com 1.10,2013-12-17 01:30:00,
2013-12-16 20:45:00,17.2,15.0,30.11,SE,128,0.0,0.0,90,0.00,,,0.00,weatherlink.com 1.10,2013-12-17 01:45:00,
2013-12-16 21:00:00,17.2,15.0,30.11,SSE,159,0.0,0.0,90,0.00,,,0.00,weatherlink.com 1.10,2013-12-17 02:00:00,
2013-12-16 21:15:00,17.2,15.0,30.10,ESE,117,0.0,0.0,90,0.00,,,0.00,weatherlink.com 1.10,2013-12-17 02:15:00,
2013-12-16 21:31:00,17.1,15.0,30.09,SE,134,0.0,0.0,91,0.00,,,0.00,weatherlink.com 1.10,2013-12-17 02:31:00,
2013-12-16 21:46:00,16.9,15.0,30.09,South,176,0.0,0.0,91,0.00,,,0.00,weatherlink.com 1.10,2013-12-17 02:46:00,
2013-12-16 22:01:00,16.7,14.0,30.08,SSE,155,0.0,0.0,90,0.00,,,0.00,weatherlink.com 1.10,2013-12-17 03:01:00,
2013-12-16 22:16:00,16.6,14.0,30.08,South,169,0.0,0.0,90,0.00,,,0.00,weatherlink.com 1.10,2013-12-17 03:16:00,
2013-12-16 22:31:00,16.6,14.0,30.08,ESE,119,0.0,0.0,90,0.00,,,0.00,weatherlink.com 1.10,2013-12-17 03:31:00,
2013-12-16 22:46:00,16.6,14.0,30.08,SSE,155,0.0,0.0,90,0.00,,,0.00,weatherlink.com 1.10,2013-12-17 03:46:00,
2013-12-16 23:01:00,16.4,14.0,30.09,SW,215,0.0,0.0,90,0.00,,,0.00,weatherlink.com 1.10,2013-12-17 04:01:00,
2013-12-16 23:16:00,16.5,14.0,30.11,SW,215,0.0,0.0,91,0.00,,,0.00,weatherlink.com 1.10,2013-12-17 04:16:00,
2013-12-16 23:31:00,16.5,14.0,30.10,SW,216,0.0,0.0,91,0.00,,,0.00,weatherlink.com 1.10,2013-12-17 04:31:00,
2013-12-16 23:46:00,16.5,14.0,30.10,SW,215,0.0,0.0,91,0.00,,,0.00,weatherlink.com 1.10,2013-12-17 04:46:00,